Location: Chiroubles
(46.1812°N, 4.6660°E)
Time: 17:34:26
(UTC+00:00)

Cosmos 1447 Rocket - Pass Details

Date: 15 August 2020
Orbit: 953 x 996 km, 82.9° (Epoch: 23 September)

Event Time Altitude Azimuth Distance (km) Brightness Sun altitude
Rises 20:32:01 0° 351° (N) 3,723 8.4 -16.0°
Reaches altitude 10° 20:34:34 10° 353° (N) 2,766 7.6 -16.3°
Maximum altitude 20:40:57 84° 82° (E) 998 4.5 -17.2°
Enters shadow 20:45:25 21° 170° (S) 2,069 5.8 -17.7°
